Overview Statistics Trail Chart Weather Telemetry Raw packets
 

This is the latest recevied weather packets stored in our database for station/object SM4JDW-10. If no packets are shown the sender has not sent any weather packets the latest 10 day(s).

<< 5 6 7 8 9 10 11 >>
Time Temp. Humidity Pressure Rain* Wind** Luminosity Snow
1788322085 11.67° C 72% 1004.5 hPa - - - -
1788320285 11.67° C 71% 1004.6 hPa - - - -
1788318485 11.67° C 74% 1004.8 hPa - - - -
1788316685 11.67° C 72% 1004.8 hPa - - - -
1788314885 11.67° C 71% 1004.9 hPa - - - -
1788313085 12.22° C 72% 1004.9 hPa - - - -
1788311285 12.22° C 71% 1005 hPa - - - -
1788309485 12.78° C 70% 1005 hPa - - - -
1788307685 12.78° C 69% 1005.2 hPa - - - -
1788305885 13.33° C 69% 1005.3 hPa - - - -
1788302284 13.89° C 66% 1005.4 hPa - - - -
1788300485 14.44° C 65% 1005.5 hPa - - - -
1788298684 14.44° C 63% 1005.6 hPa - - - -
1788296884 14.44° C 62% 1005.6 hPa - - - -
1788295084 15° C 59% 1005.6 hPa - - - -
1788293284 15.56° C 59% 1005.8 hPa - - - -
1788291484 15.56° C 56% 1005.8 hPa - - - -
1788289684 16.11° C 56% 1005.9 hPa - - - -
1788287883 16.67° C 56% 1005.8 hPa - - - -
1788286083 17.22° C 55% 1005.7 hPa - - - -
1788284284 17.78° C 56% 1005.6 hPa - - - -
1788282483 18.33° C 54% 1005.6 hPa - - - -
1788280683 18.89° C 53% 1005.8 hPa - - - -
1788278883 19.44° C 51% 1005.8 hPa - - - -
1788277083 20° C 49% 1005.8 hPa - - - -

* Rain since midnight (hover to see other rain measurements)
** Current wind speed in m/s (hover to see current wind gust speed)